Location: Newark
(49.8969°N, 3.3422°E)
Time: 06:09:46
(UTC+00:00)

Explorer 7 - Pass Details

Date: 31 January 2020
Orbit: 485 x 679 km, 50.3° (Epoch: 20 February)

Event Time Altitude Azimuth Distance (km) Brightness Sun altitude
Rises 02:20:42 0° 283° (WNW) 2,554 - -47.1°
Reaches altitude 10° 02:23:13 10° 267° (W) 1,679 - -46.8°
Maximum altitude 02:26:06 21° 217° (SW) 1,162 - -46.4°
Drops below altitude 10° 02:29:03 10° 167° (SSE) 1,715 - -46.0°
Sets 02:31:39 0° 151° (SSE) 2,627 - -45.7°
